Volver al catálogo

FENGYUN 1C DEB

ActivoSSO
NORAD 36247·DEBRIS·🇨🇳 China

Lanzado May 10, 1999 desde Taiyuan Satellite Launch Center

Loading…

Próximos Pases (próximas 24 horas)

TLE

EnvejeciendoSource: Space-Track

Época: Sep 4, 2026, 23:45 UTC

1 36247U 99025DVY 26247.99004953  .00000600  00000-0  19104-3 0  9991
2 36247  98.2648 254.5065 0183973 318.4948  40.2388 14.34300877740784

Sigue FENGYUN 1C DEB en tiempo real con AllMySat

Download on the App Store